GW7488 Weather Reports


time (UTC)temp
C
wind
direction
speed
KPH
gust
KPH
rain 1hr
cm
rain 24hr
cm
rain mn
cm
humidity
%
barometer
mb
20260906122449 16 299 0.0 3.2 0.00 0.00 0.00 70 1013.6
20260906121949 16 269 0.0 1.6 0.00 0.00 0.00 70 1013.3
20260906120934 16 55 0.0 1.6 0.00 0.00 0.00 70 1013.4
20260906120434 16 147 0.0 3.2 0.00 0.00 0.00 70 1013.4
20260906115418 16 258 3.2 3.2 0.00 0.00 0.00 70 1013.0
20260906114403 17 252 0.0 3.2 0.00 0.00 0.00 68 1012.5
20260906113903 17 299 1.6 3.2 0.00 0.00 0.00 68 1012.8
20260906112848 17 339 3.2 4.8 0.00 0.00 0.00 68 1012.7
20260906112348 17 21 0.0 3.2 0.00 0.00 0.00 69 1012.5
20260906111848 17 82 1.6 1.6 0.00 0.00 0.00 68 1012.1
20260906111348 17 4 0.0 3.2 0.00 0.00 0.00 68 1011.8
20260906110847 17 35 3.2 4.8 0.00 0.00 0.00 68 1011.9
20260906105832 17 25 0.0 3.2 0.00 0.00 0.00 69 1011.7
20260906105332 17 69 3.2 6.4 0.00 0.00 0.00 69 1011.8
20260906104832 17 31 4.8 6.4 0.00 0.00 0.00 69 1011.7
20260906104332 17 68 0.0 4.8 0.00 0.00 0.00 69 1011.6
20260906103831 17 186 0.0 1.6 0.00 0.00 0.00 70 1011.3
20260906103331 17 261 1.6 3.2 0.00 0.00 0.00 69 1011.2
20260906102831 17 290 3.2 4.8 0.00 0.00 0.00 69 1011.4
20260906101816 17 259 1.6 4.8 0.00 0.00 0.00 67 1011.3
20260906101315 18 262 3.2 9.7 0.00 0.00 0.00 67 1011.2
20260906100815 18 263 4.8 6.4 0.00 0.00 0.00 68 1011.2
20260906095758 18 262 4.8 6.4 0.00 0.00 0.00 68 1011.1
20260906095258 18 291 3.2 6.4 0.00 0.00 0.00 67 1011.2
20260906094757 18 275 4.8 4.8 0.00 0.00 0.00 67 1011.4
20260906094257 18 259 1.6 3.2 0.00 0.00 0.00 66 1011.3
20260906093757 18 269 4.8 6.4 0.00 0.00 0.00 66 1011.0
20260906092742 18 60 0.0 1.6 0.00 0.00 0.00 65 1011.0
20260906092242 18 315 3.2 3.2 0.00 0.00 0.00 64 1011.0
20260906091741 18 212 0.0 1.6 0.00 0.00 0.00 64 1010.9
20260906091241 18 124 0.0 1.6 0.00 0.00 0.00 64 1010.7
20260906090741 18 321 0.0 1.6 0.00 0.00 0.00 64 1010.7
20260906090241 18 172 1.6 3.2 0.00 0.00 0.00 64 1010.4
20260906085740 18 109 3.2 4.8 0.00 0.00 0.00 63 1010.4
20260906085240 18 89 1.6 4.8 0.00 0.00 0.00 63 1010.5
20260906084740 18 25 1.6 1.6 0.00 0.00 0.00 63 1010.3
20260906084240 18 12 0.0 3.2 0.00 0.00 0.00 63 1010.2
20260906083740 18 256 0.0 3.2 0.00 0.00 0.00 63 1010.3
20260906083239 18 37 0.0 4.8 0.00 0.00 0.00 64 1010.3
20260906082224 18 25 3.2 4.8 0.00 0.00 0.00 65 1010.1
20260906081724 18 48 0.0 3.2 0.00 0.00 0.00 66 1010.2
20260906081224 18 352 4.8 4.8 0.00 0.00 0.00 66 1010.0
20260906080724 18 343 3.2 3.2 0.00 0.00 0.00 66 1009.9
20260906080224 18 332 1.6 6.4 0.00 0.00 0.00 65 1009.9
20260906075724 18 1 1.6 4.8 0.00 0.00 0.00 65 1010.1
20260906075224 18 5 3.2 9.7 0.00 0.00 0.00 65 1009.9
20260906073653 19 342 1.6 3.2 0.00 0.00 0.00 62 1009.7
20260906072638 19 0 6.4 8.0 0.00 0.00 0.00 62 1009.6
20260906072138 19 16 4.8 6.4 0.00 0.00 0.00 63 1009.4
20260906071638 19 0 3.2 4.8 0.00 0.00 0.00 63 1009.4
20260906071138 19 1 3.2 4.8 0.00 0.00 0.00 63 1009.5
20260906070122 18 13 6.4 8.0 0.00 0.00 0.00 63 1009.2
20260906065107 18 341 3.2 6.4 0.00 0.00 0.00 63 1009.2
20260906064606 18 37 0.0 4.8 0.00 0.00 0.00 64 1009.3
20260906064107 18 316 1.6 3.2 0.00 0.00 0.00 61 1009.2
20260906063606 19 55 0.0 1.6 0.00 0.00 0.00 60 1009.2
20260906063106 19 214 0.0 0.0 0.00 0.00 0.00 58 1008.9
20260906062606 19 212 0.0 1.6 0.00 0.00 0.00 58 1009.3
20260906062105 19 32 0.0 0.0 0.00 0.00 0.00 59 1008.6
20260906061605 19 322 0.0 0.0 0.00 0.00 0.00 58 1008.7
20260906060550 20 12 0.0 3.2 0.00 0.00 0.00 58 1008.7
20260906060050 20 253 0.0 0.0 0.00 0.00 0.00 57 1008.5
20260906055550 20 238 3.2 3.2 0.00 0.00 0.00 56 1008.4
20260906055050 20 55 0.0 0.0 0.00 0.00 0.00 55 1008.6
20260906054549 20 46 1.6 3.2 0.00 0.00 0.00 55 1008.2
20260906053534 20 129 0.0 1.6 0.00 0.00 0.00 54 1008.2
20260906053034 21 76 0.0 1.6 0.00 0.00 0.00 53 1008.1
20260906052018 21 264 0.0 1.6 0.00 0.00 0.00 52 1008.0
20260906051518 21 256 3.2 3.2 0.00 0.00 0.00 52 1008.0
20260906051018 21 238 0.0 1.6 0.00 0.00 0.00 51 1008.2
20260906050518 21 123 1.6 3.2 0.00 0.00 0.00 50 1008.1
20260906044948 21 129 0.0 1.6 0.00 0.00 0.00 50 1007.7
20260906044447 21 25 0.0 3.2 0.00 0.00 0.00 49 1007.8
20260906043947 21 44 0.0 0.0 0.00 0.00 0.00 50 1008.0
20260906043447 21 142 0.0 3.2 0.00 0.00 0.00 50 1007.9
20260906042946 22 246 0.0 3.2 0.00 0.00 0.00 50 1007.9
20260906042446 22 319 0.0 3.2 0.00 0.00 0.00 50 1007.9
20260906041946 22 264 0.0 3.2 0.00 0.00 0.00 51 1007.9
20260906040416 22 255 3.2 3.2 0.00 0.00 0.00 53 1007.7
20260906035916 22 242 0.0 1.6 0.00 0.00 0.00 53 1007.7
20260906035415 22 129 0.0 0.0 0.00 0.00 0.00 53 1007.9
20260906034915 23 293 0.0 3.2 0.00 0.00 0.00 51 1007.5
20260906034413 23 259 4.8 6.4 0.00 0.00 0.00 51 1007.6
20260906033913 23 298 3.2 3.2 0.00 0.00 0.00 52 1007.6
20260906033412 23 276 3.2 3.2 0.00 0.00 0.00 51 1007.7
20260906031842 24 126 0.0 1.6 0.00 0.00 0.00 51 1007.4
20260906031341 24 212 0.0 1.6 0.00 0.00 0.00 50 1007.4
20260906030841 24 164 0.0 3.2 0.00 0.00 0.00 50 1007.5
20260906030340 24 93 1.6 3.2 0.00 0.00 0.00 50 1007.2
20260906025840 24 96 3.2 4.8 0.00 0.00 0.00 50 1007.1
20260906025339 25 179 3.2 8.0 0.00 0.00 0.00 49 1007.0
20260906024839 25 167 0.0 3.2 0.00 0.00 0.00 49 1007.2
20260906023823 25 125 4.8 16.1 0.00 0.00 0.00 48 1007.0
20260906023323 25 112 6.4 12.9 0.00 0.00 0.00 48 1006.8
20260906021752 26 93 4.8 12.9 0.00 0.00 0.00 46 1006.7
20260906021252 26 71 11.3 20.9 0.00 0.00 0.00 46 1006.8
20260906020751 26 79 9.7 17.7 0.00 0.00 0.00 44 1006.7
20260906020250 25 107 11.3 12.9 0.00 0.00 0.00 37 1006.4
20260906015750 25 40 3.2 3.2 0.00 0.00 0.00 36 1006.1
20260906014735 26 311 0.0 3.2 0.00 0.00 0.00 35 1006.6
20260906014234 26 151 0.0 3.2 0.00 0.00 0.00 34 1006.2
20260906013733 26 142 0.0 1.6 0.00 0.00 0.00 33 1006.2
20260906012718 27 35 1.6 4.8 0.00 0.00 0.00 33 1006.4
20260906012217 27 243 3.2 6.4 0.00 0.00 0.00 33 1006.6
20260906011717 27 291 3.2 3.2 0.00 0.00 0.00 31 1006.4
20260906011216 27 14 1.6 3.2 0.00 0.00 0.00 30 1006.2
20260906010200 28 250 0.0 4.8 0.00 0.00 0.00 29 1006.6
20260906005659 29 271 3.2 4.8 0.00 0.00 0.00 28 1006.6
20260906005159 30 269 0.0 3.2 0.00 0.00 0.00 27 1006.8
20260906004659 30 245 1.6 3.2 0.00 0.00 0.00 27 1007.2
20260906003643 29 8 1.6 3.2 0.00 0.00 0.00 27 1006.9
20260906003142 29 0 3.2 4.8 0.00 0.00 0.00 27 1007.2
20260906002641 29 13 3.2 4.8 0.00 0.00 0.00 27 1007.2
20260906002141 30 338 1.6 4.8 0.00 0.00 0.00 27 1007.5
20260906001640 30 326 3.2 6.4 0.00 0.00 0.00 26 1007.3
20260906001140 30 20 3.2 4.8 0.00 0.00 0.00 26 1007.4
20260906000639 30 268 3.2 6.4 0.00 0.00 0.00 26 1007.5
20260906000138 30 344 3.2 6.4 0.00 0.00 0.00 26 1007.5
20260905235638 31 296 4.8 8.0 0.00 0.00 0.00 26 1007.5
20260905235137 31 290 6.4 6.4 0.00 0.00 0.00 25 1007.8
20260905234637 32 311 0.0 6.4 0.00 0.00 0.00 24 1007.6
20260905234137 31 296 1.6 8.0 0.00 0.00 0.00 24 1007.7
20260905233637 31 295 0.0 6.4 0.00 0.00 0.00 24 1007.5
20260905233137 31 2 3.2 9.7 0.00 0.00 0.00 24 1007.9
20260905232637 32 218 3.2 6.4 0.00 0.00 0.00 24 1007.9
20260905232136 31 320 0.0 6.4 0.00 0.00 0.00 25 1007.8
20260905231636 31 299 6.4 9.7 0.00 0.00 0.00 25 1008.1
20260905231136 31 293 6.4 9.7 0.00 0.00 0.00 25 1008.1
20260905230636 31 327 1.6 9.7 0.00 0.00 0.00 25 1008.3
20260905230136 31 349 6.4 8.0 0.00 0.00 0.00 24 1008.4
20260905225636 30 339 4.8 9.7 0.00 0.00 0.00 26 1008.4
20260905225136 30 346 8.0 8.0 0.00 0.00 0.00 26 1008.4
20260905224635 30 0 3.2 8.0 0.00 0.00 0.00 25 1008.6
20260905224135 30 304 3.2 4.8 0.00 0.00 0.00 27 1008.6
20260905223635 30 346 3.2 6.4 0.00 0.00 0.00 27 1009.0
20260905222620 30 334 8.0 11.3 0.00 0.00 0.00 26 1009.0
20260905220019 28 339 4.8 6.4 0.00 0.00 0.00 31 1009.7
20260905215519 28 355 3.2 9.7 0.00 0.00 0.00 31 1009.7
20260905215019 29 0 3.2 8.0 0.00 0.00 0.00 31 1009.7
20260905214519 28 324 6.4 12.9 0.00 0.00 0.00 31 1009.8
20260905212948 27 31 4.8 6.4 0.00 0.00 0.00 36 1010.0
20260905211933 27 6 3.2 11.3 0.00 0.00 0.00 35 1010.2
20260905211433 27 5 6.4 12.9 0.00 0.00 0.00 32 1010.1
20260905210933 27 4 8.0 16.1 0.00 0.00 0.00 31 1010.4
20260905210433 27 9 9.7 14.5 0.00 0.00 0.00 30 1010.2
20260905205933 28 324 6.4 11.3 0.00 0.00 0.00 31 1010.4
20260905205433 30 351 4.8 6.4 0.00 0.00 0.00 27 1010.7
20260905204933 30 259 1.6 6.4 0.00 0.00 0.00 24 1010.5
20260905204432 30 18 6.4 8.0 0.00 0.00 0.00 23 1010.6
20260905203932 31 32 9.7 24.1 0.00 0.00 0.00 23 1010.4
20260905203432 31 82 6.4 8.0 0.00 0.00 0.00 22 1010.6
20260905202932 31 41 3.2 11.3 0.00 0.00 0.00 23 1010.6
20260905201917 31 84 3.2 9.7 0.00 0.00 0.00 23 1010.7
20260905201417 31 95 8.0 14.5 0.00 0.00 0.00 23 1010.8
20260905200916 31 105 9.7 16.1 0.00 0.00 0.00 22 1010.8
20260905200416 31 35 6.4 14.5 0.00 0.00 0.00 23 1010.9
20260905195916 32 50 6.4 12.9 0.00 0.00 0.00 22 1011.1
20260905195416 32 41 6.4 12.9 0.00 0.00 0.00 23 1011.3
20260905194916 32 109 6.4 14.5 0.00 0.00 0.00 21 1011.0
20260905194416 33 168 9.7 12.9 0.00 0.00 0.00 21 1011.3
20260905193915 33 299 3.2 6.4 0.00 0.00 0.00 20 1011.5
20260905193415 33 80 6.4 14.5 0.00 0.00 0.00 22 1011.6
20260905192915 33 66 6.4 8.0 0.00 0.00 0.00 22 1011.7
20260905192415 32 21 4.8 8.0 0.00 0.00 0.00 22 1011.8
20260905191915 32 225 0.0 9.7 0.00 0.00 0.00 22 1012.0
20260905191413 32 78 4.8 9.7 0.00 0.00 0.00 22 1012.2
20260905190913 32 97 4.8 8.0 0.00 0.00 0.00 22 1012.1
20260905190413 32 18 3.2 8.0 0.00 0.00 0.00 22 1012.6
20260905185912 32 74 1.6 6.4 0.00 0.00 0.00 22 1012.3
20260905185412 32 23 3.2 4.8 0.00 0.00 0.00 22 1012.7
20260905184912 31 129 6.4 8.0 0.00 0.00 0.00 22 1012.8
20260905184412 31 31 4.8 8.0 0.00 0.00 0.00 23 1013.0
20260905183911 31 15 3.2 9.7 0.00 0.00 0.00 23 1013.1
20260905183411 32 10 8.0 11.3 0.00 0.00 0.00 21 1012.8
20260905182911 31 11 6.4 11.3 0.00 0.00 0.00 23 1013.2
20260905182411 31 7 14.5 14.5 0.00 0.00 0.00 22 1013.3
20260905181911 32 339 1.6 6.4 0.00 0.00 0.00 23 1013.5
20260905181411 31 287 1.6 8.0 0.00 0.00 0.00 22 1013.5
20260905180355 31 119 3.2 6.4 0.00 0.00 0.00 22 1013.8
20260905175855 31 341 4.8 4.8 0.00 0.00 0.00 23 1014.0
20260905174840 31 8 9.7 9.7 0.00 0.00 0.00 24 1014.1
20260905174339 31 16 1.6 8.0 0.00 0.00 0.00 23 1014.0
20260905173839 31 339 3.2 6.4 0.00 0.00 0.00 26 1014.1
20260905173339 31 113 1.6 4.8 0.00 0.00 0.00 24 1014.4
20260905172839 31 219 1.6 9.7 0.00 0.00 0.00 25 1014.4
20260905172339 31 135 3.2 4.8 0.00 0.00 0.00 25 1014.4
20260905171323 31 261 6.4 8.0 0.00 0.00 0.00 26 1014.8
20260905170823 30 348 1.6 3.2 0.00 0.00 0.00 29 1014.7
20260905170323 30 355 3.2 4.8 0.00 0.00 0.00 28 1014.8
20260905165823 29 173 0.0 3.2 0.00 0.00 0.00 30 1015.0
20260905165322 30 249 4.8 6.4 0.00 0.00 0.00 29 1015.4
20260905164822 29 324 4.8 4.8 0.00 0.00 0.00 31 1014.9
20260905164322 29 226 3.2 3.2 0.00 0.00 0.00 30 1015.0
20260905163822 29 274 1.6 3.2 0.00 0.00 0.00 29 1015.0
20260905163321 29 23 0.0 3.2 0.00 0.00 0.00 30 1015.1
20260905162821 30 50 3.2 4.8 0.00 0.00 0.00 30 1015.1
20260905161251 28 78 0.0 3.2 0.00 0.00 0.00 34 1015.4
20260905160236 27 26 3.2 4.8 0.00 0.00 0.00 36 1015.0
20260905155735 27 150 0.0 1.6 0.00 0.00 0.00 39 1015.3
20260905155235 26 218 0.0 4.8 0.00 0.00 0.00 39 1015.3
20260905154735 26 73 0.0 3.2 0.00 0.00 0.00 41 1015.4
20260905154235 25 20 3.2 3.2 0.00 0.00 0.00 43 1015.4
20260905153734 25 25 0.0 4.8 0.00 0.00 0.00 44 1015.4
20260905153234 25 320 1.6 3.2 0.00 0.00 0.00 42 1015.3
20260905152734 25 258 0.0 3.2 0.00 0.00 0.00 45 1015.3
20260905151718 24 252 1.6 3.2 0.00 0.00 0.00 45 1015.5
20260905151218 23 220 3.2 3.2 0.00 0.00 0.00 48 1015.5
20260905150718 23 277 1.6 3.2 0.00 0.00 0.00 52 1015.3
20260905150218 22 13 0.0 4.8 0.00 0.00 0.00 53 1015.6
20260905145717 22 262 3.2 3.2 0.00 0.00 0.00 56 1015.5
20260905145216 21 309 1.6 4.8 0.00 0.00 0.00 56 1015.6
20260905144716 21 337 0.0 3.2 0.00 0.00 0.00 59 1015.5
20260905144216 20 2 3.2 4.8 0.00 0.00 0.00 61 1015.4
20260905143714 19 291 1.6 6.4 0.00 0.00 0.00 63 1015.5
20260905143214 18 345 3.2 3.2 0.00 0.00 0.00 66 1015.3
20260905142713 17 312 1.6 4.8 0.00 0.00 0.00 69 1015.4
20260905142213 16 351 3.2 4.8 0.00 0.00 0.00 71 1015.2
20260905141713 16 323 3.2 3.2 0.00 0.00 0.00 73 1015.4
20260905141213 15 334 0.0 3.2 0.00 0.00 0.00 74 1015.2
20260905140713 15 347 0.0 1.6 0.00 0.00 0.00 74 1015.3
20260905135657 15 310 3.2 3.2 0.00 0.00 0.00 73 1014.9
20260905135157 15 276 1.6 3.2 0.00 0.00 0.00 72 1014.8
20260905134657 15 276 1.6 3.2 0.00 0.00 0.00 73 1014.5
20260905134156 15 301 0.0 3.2 0.00 0.00 0.00 73 1014.6
20260905133656 15 135 0.0 1.6 0.00 0.00 0.00 73 1014.5
20260905133156 15 224 0.0 1.6 0.00 0.00 0.00 74 1014.5
20260905132656 15 249 0.0 3.2 0.00 0.00 0.00 74 1014.2
20260905132156 15 288 1.6 1.6 0.00 0.00 0.00 74 1013.9
20260905131140 15 50 0.0 1.6 0.00 0.00 0.00 75 1014.0
20260905130640 15 261 0.0 1.6 0.00 0.00 0.00 75 1013.7
20260905130140 15 38 1.6 3.2 0.00 0.00 0.00 75 1013.5
20260905125640 15 37 3.2 3.2 0.00 0.00 0.00 75 1013.4
20260905125140 15 229 0.0 3.2 0.00 0.00 0.00 75 1013.2
20260905124640 14 323 1.6 3.2 0.00 0.00 0.00 76 1013.0
20260905124139 14 305 1.6 3.2 0.00 0.00 0.00 76 1013.1
20260905123639 14 106 3.2 3.2 0.00 0.00 0.00 75 1012.9